Weather observations for the past three days for
Springfield Robertson County Airport
Metric (Imperial)
Date Time (cdt) Wind (kph) Vis. (km) Weather Sky Cond. Temperature (ºC) Relative Humidity Wind Chill (°C) Heat Index (°C) Pressure Precipitation (cm)
Air Dwpt 6 hour altimeter (cm) sea level (mb) 1 hr 3 hr 6 hr
Max. Min.
08 20:15 S 7 16.09 Partly Cloudy SCT090 18 6 46% 75.77 0.0
08 19:55 S 7 16.09 Fair CLR 18 7 49% 75.77 0.0
08 19:35 S 7 16.09 Fair CLR 19 6 43% 75.79 0.0
08 19:15 Calm 16.09 Fair CLR 20 7 43% 75.79 0.0
08 18:55 S 7 16.09 Fair CLR 21 7 40% 75.79 0.0
08 18:35 S 7 16.09 Fair CLR 22 6 36% 75.82 0.0
08 18:15 S 11 16.09 Fair CLR 22 6 36% 75.82 0.0
08 17:55 S 17 16.09 Fair CLR 22 5 33% 75.82 0.0
08 17:35 Vrbl 7 16.09 Fair CLR 22 5 33% 75.84 0.0
08 17:15 S 15 16.09 Fair CLR 23 6 33% 75.84 0.0
08 16:55 S 11 16.09 Fair CLR 23 6 33% 75.84 0.0
08 16:35 Vrbl 7 G 20 16.09 Fair CLR 22 5 33% 75.84 0.0
08 16:15 SW 17 16.09 Fair CLR 23 6 33% 75.84 0.0
08 15:55 S 13 16.09 Fair CLR 23 5 31% 75.87 0.0
08 15:35 S 9 G 28 16.09 Fair CLR 23 6 33% 75.9 0.0
08 15:15 Vrbl 11 16.09 Fair CLR 22 5 33% 75.92 0.0
08 14:55 S 19 G 31 16.09 Fair CLR 22 6 36% 75.92 0.0
08 14:35 SW 20 16.09 Fair CLR 22 5 33% 75.95 0.0
08 14:15 Calm 16.09 Fair CLR 22 4 31% 75.97 0.0
08 13:55 SW 13 G 24 16.09 Fair CLR 21 5 35% 76 0.0
08 13:35 S 15 16.09 Fair CLR 21 5 35% 76.02 0.0
08 13:15 SE 13 G 30 16.09 Fair CLR 21 5 35% 76.07 0.0
08 12:55 S 17 G 26 16.09 Fair CLR 21 5 35% 76.07 0.0
08 12:35 S 7 G 28 16.09 Fair CLR 21 4 33% 76.1 0.0
08 12:15 S 13 16.09 Fair CLR 20 5 38% 76.12 0.0
08 11:55 S 11 G 30 16.09 Fair CLR 20 5 38% 76.15 0.0
08 11:35 S 15 16.09 Fair CLR 20 5 38% 76.17 0.0
08 11:15 Vrbl 11 G 20 16.09 Fair CLR 19 5 40% 76.2 0.0
08 10:55 Vrbl 11 16.09 Fair CLR 19 5 40% 76.23 0.0
08 10:35 Vrbl 11 G 20 16.09 Fair CLR 19 6 43% 76.23 0.0
08 10:15 SE 13 16.09 Fair CLR 18 6 46% 76.25 0.0
08 09:55 S 15 16.09 Fair CLR 18 6 46% 76.25 0.0
08 09:35 Vrbl 9 16.09 Fair CLR 17 7 52% 76.25 0.0
08 09:15 S 9 16.09 Fair CLR 16 6 52% 76.28 0.0
08 08:55 S 11 16.09 Fair CLR 15 7 59% 76.28 0.0
08 08:35 S 11 16.09 Fair CLR 14 7 63% 76.3 0.0
08 08:15 S 11 16.09 Fair CLR 13 7 67% 76.3 0.0
08 07:55 S 9 16.09 Fair CLR 11 7 77% 76.3 0.0
08 07:35 S 7 16.09 Fair CLR 10 7 82% 9 76.28 0.0
08 07:15 SE 7 16.09 Fair CLR 9 7 87% 8 76.25 0.0
08 06:55 SE 7 16.09 Fair CLR 7 7 100% 6 76.25 0.0
08 06:35 SE 7 16.09 Fair CLR 6 6 100% 5 76.23 0.0
08 06:15 SE 7 16.09 Fair CLR 5 5 100% 4 76.23 0.0
08 05:55 Calm 16.09 Fair CLR 5 5 100% 76.2 0.0
08 05:35 Calm 16.09 Fair CLR 5 5 100% 76.2 0.0
08 05:15 Calm 16.09 Fair CLR 5 5 100% 76.17 0.0
08 04:55 Calm 16.09 A Few Clouds FEW046 FEW060 5 5 100% 76.17 0.0
08 04:35 Calm 16.09 Fair CLR 6 5 93% 76.17 0.0
08 04:15 Calm 16.09 A Few Clouds FEW047 6 6 100% 76.17 0.0
08 03:55 Calm 16.09 Fair CLR 6 6 100% 76.17 0.0
08 03:35 Calm 16.09 A Few Clouds FEW034 FEW044 FEW080 6 6 100% 76.17 0.0
08 03:15 Calm 16.09 A Few Clouds FEW043 6 6 100% 76.2 0.0
08 02:55 Calm 16.09 A Few Clouds FEW046 6 6 100% 76.2 0.0
08 02:35 Calm 16.09 A Few Clouds FEW046 FEW050 7 6 93% 76.2 0.0
08 02:10 SE 7 16.09 A Few Clouds FEW037 FEW044 7 7 100% 6 76.23 0.0
08 01:55 Calm 16.09 A Few Clouds FEW041 FEW049 7 7 100% 76.2 0.0
08 01:35 Calm 16.09 A Few Clouds FEW042 FEW050 7 7 100% 76.23 0.0
08 01:15 Calm 16.09 A Few Clouds FEW047 7 7 100% 76.23 0.0
08 00:55 Calm 16.09 Fair CLR 7 7 100% 76.23 0.0
08 00:35 Calm 16.09 A Few Clouds FEW050 7 7 100% 76.23 0.0
08 00:15 Calm 16.09 A Few Clouds FEW045 FEW050 8 7 93% 76.23 0.0
07 23:55 Calm 16.09 Partly Cloudy FEW048 SCT055 8 8 100% 76.23 0.0
07 23:35 Calm 16.09 Partly Cloudy FEW038 SCT050 SCT060 8 8 100% 76.23 0.0
07 23:15 Calm 16.09 Mostly Cloudy SCT037 SCT042 BKN050 8 8 100% 76.25 0.0
07 22:55 Calm 16.09 Mostly Cloudy BKN037 BKN044 BKN050 9 8 94% 76.25 0.0
07 22:35 SE 6 16.09 Mostly Cloudy BKN037 BKN044 BKN049 9 7 87% 76.25 0.0
07 22:15 Calm 16.09 Mostly Cloudy SCT037 BKN045 9 7 87% 76.23 0.0
07 21:55 Calm 16.09 A Few Clouds FEW042 FEW050 10 8 88% 76.2 0.0
07 21:35 Calm 16.09 A Few Clouds FEW043 FEW050 11 7 77% 76.2 0.0
07 21:15 Calm 16.09 Partly Cloudy FEW044 SCT050 11 6 72% 76.2 0.0
07 20:55 Calm 16.09 Partly Cloudy FEW040 SCT048 11 8 82% 76.2 0.0
07 20:35 N 6 16.09 Partly Cloudy FEW046 SCT050 12 6 67% 76.17 0.0
07 20:15 Calm 16.09 A Few Clouds FEW050 13 6 63% 76.17 0.0
07 19:55 Calm 16.09 Fair CLR 14 4 51% 76.15 0.0
07 19:35 Calm 16.09 Fair CLR 15 4 48% 76.12 0.0
07 19:15 Calm 16.09 Fair CLR 16 4 45% 76.12 0.0
07 18:55 NW 7 16.09 Fair CLR 17 3 39% 76.1 0.0
07 18:35 Vrbl 7 16.09 Fair CLR 17 3 39% 76.1 0.0
07 18:15 Vrbl 7 16.09 Fair CLR 17 3 39% 76.1 0.0
07 17:55 Vrbl 7 16.09 Fair CLR 18 3 37% 76.1 0.0
07 17:35 Vrbl 6 16.09 Fair CLR 18 3 37% 76.12 0.0
07 17:15 NW 7 16.09 Fair CLR 18 3 37% 76.12 0.0
07 16:55 W 9 16.09 Fair CLR 18 4 40% 76.12 0.0
07 16:35 NW 17 G 33 16.09 Fair CLR 18 4 40% 76.12 0.0
07 16:15 NW 7 16.09 Fair CLR 18 3 37% 76.1 0.0
07 15:55 Vrbl 11 16.09 Fair CLR 18 4 40% 76.1 0.0
07 15:35 N 13 16.09 A Few Clouds FEW060 18 4 40% 76.1 0.0
07 15:15 Vrbl 9 G 20 16.09 Fair CLR 18 5 43% 76.12 0.0
07 14:55 Vrbl 7 G 22 16.09 Fair CLR 17 3 39% 76.12 0.0
07 14:35 N 11 G 22 16.09 Fair CLR 17 4 42% 76.12 0.0
07 14:15 N 15 G 26 16.09 Fair CLR 18 4 40% 76.15 0.0
07 13:55 Vrbl 11 G 24 16.09 Fair CLR 17 4 42% 76.15 0.0
07 13:35 Vrbl 7 G 24 16.09 Fair CLR 17 4 42% 76.15 0.0
07 13:15 N 13 G 26 16.09 Fair CLR 17 4 42% 76.15 0.0
07 12:55 N 17 16.09 Fair CLR 17 4 42% 76.17 0.0
07 12:35 N 17 G 28 16.09 Fair CLR 17 4 42% 76.17 0.0
07 12:15 N 19 16.09 Fair CLR 16 4 45% 76.2 0.0
07 11:55 N 13 16.09 A Few Clouds FEW050 16 4 45% 76.23 0.0
07 11:35 Vrbl 9 G 22 16.09 Partly Cloudy SCT049 16 5 48% 76.23 0.0
07 11:15 N 19 16.09 A Few Clouds FEW046 15 4 48% 76.25 0.0
07 10:55 NE 13 16.09 A Few Clouds FEW043 15 6 55% 76.25 0.0
07 10:35 N 19 16.09 Fair CLR 15 6 55% 76.23 0.0
07 10:15 Vrbl 11 16.09 Fair CLR 15 6 55% 76.23 0.0
07 09:55 N 19 G 28 16.09 Fair CLR 15 6 55% 76.23 0.0
07 09:35 NE 15 16.09 Fair CLR 14 6 59% 76.25 0.0
07 09:15 NE 15 G 24 16.09 Fair CLR 14 7 63% 76.23 0.0
07 08:55 NE 19 16.09 Fair CLR 13 7 67% 76.23 0.0
07 08:35 NE 19 16.09 Fair CLR 12 7 72% 76.23 0.0
07 08:15 NE 15 G 24 16.09 Fair CLR 12 7 72% 76.17 0.0
07 07:55 NE 17 16.09 Fair CLR 11 8 82% 76.2 0.0
07 07:35 N 17 16.09 Fair CLR 11 8 82% 76.2 0.0
07 07:15 N 15 16.09 Fair CLR 10 8 88% 8 76.17 0.0
07 06:55 N 13 16.09 Fair CLR 9 9 100% 7 76.17 0.0
07 06:35 N 9 16.09 Fair CLR 9 8 94% 8 76.17 0.0
07 06:15 N 9 16.09 Fair CLR 8 8 100% 7 76.15 0.0
07 05:55 N 9 16.09 Fair CLR 8 8 100% 7 76.12 0.0
07 05:35 N 7 16.09 A Few Clouds FEW043 FEW048 8 8 100% 7 76.12 0.0
07 05:15 N 9 16.09 Mostly Cloudy FEW041 SCT048 BKN100 8 8 100% 7 76.1 0.0
07 04:55 N 6 16.09 Mostly Cloudy FEW047 BKN100 9 9 100% 76.12 0.0
07 04:35 N 7 16.09 Mostly Cloudy FEW041 FEW049 BKN095 9 9 100% 8 76.1 0.0
07 04:15 N 9 16.09 Mostly Cloudy BKN095 9 9 100% 8 76.1 0.0
07 03:55 N 9 16.09 Mostly Cloudy BKN095 10 10 100% 9 76.1 0.0
07 03:35 N 7 16.09 Partly Cloudy SCT095 SCT120 10 10 100% 9 76.1 0.0
07 03:15 N 13 16.09 Mostly Cloudy BKN095 BKN120 10 10 100% 8 76.07 0.0
07 02:55 N 13 16.09 Overcast OVC095 10 10 100% 8 76.1 0.0
07 02:35 Calm 16.09 Overcast OVC095 10 10 100% 76.1 0.0
07 02:15 N 6 16.09 Overcast OVC100 10 10 100% 76.1 0.0
07 01:55 NW 6 16.09 Overcast OVC100 11 10 94% 76.12 0.0
07 01:35 Calm 16.09 Overcast OVC110 11 11 100% 76.1 0.0
07 01:15 N 9 16.09 Overcast OVC110 11 11 100% 76.1 0.0
07 00:55 N 7 16.09 Mostly Cloudy FEW043 BKN110 11 11 100% 76.07 0.0
07 00:35 Calm 16.09 Mostly Cloudy FEW031 SCT046 BKN120 11 11 100% 76.1 0.0
07 00:15 N 7 16.09 Mostly Cloudy FEW035 SCT060 BKN120 11 11 100% 76.12 0.0
06 23:55 N 7 16.09 Mostly Cloudy FEW029 SCT041 BKN065 11 11 100% 76.12 0.0
06 23:35 Calm 16.09 Overcast FEW027 BKN040 OVC120 11 11 100% 76.15 0.0
06 23:15 N 7 16.09 Mostly Cloudy FEW023 SCT031 BKN038 11 11 100% 76.12 0.0
06 22:55 Calm 16.09 Overcast FEW028 BKN037 OVC060 11 11 100% 76.1 0.0
06 22:35 N 6 16.09 Overcast FEW027 BKN036 OVC120 11 11 100% 76.12 0.0
06 22:15 N 7 16.09 Mostly Cloudy FEW034 FEW041 BKN120 12 11 94% 76.12 0.0
06 21:55 N 9 16.09 Partly Cloudy FEW047 SCT110 12 12 100% 76.07 0.0
06 21:35 Calm 16.09 Overcast SCT035 SCT049 OVC110 12 12 100% 76.1 0.0
06 21:15 Calm 16.09 Overcast BKN034 OVC050 12 12 100% 76.12 0.0
06 20:55 NW 6 16.09 Overcast SCT034 OVC050 12 12 100% 76.12 0.0
06 20:35 Calm 16.09 Overcast BKN033 OVC050 12 12 100% 76.12 0.0
06 20:15 SW 9 16.09 Overcast BKN032 BKN080 OVC120 12 12 100% 76.17 0.0
06 19:55 NW 6 16.09 Overcast FEW032 SCT075 OVC110 12 12 100% 76.05 0.0
06 19:35 Calm 16.09 Overcast BKN030 BKN075 OVC120 12 12 100% 76 0.0
06 19:15 N 7 16.09 Overcast BKN029 OVC120 12 12 100% 76 0.0
06 18:55 NW 11 16.09 Mostly Cloudy FEW032 SCT080 BKN120 12 12 100% 76.02 0.0
06 18:35 NE 9 8.05 Fog/Mist SCT033 SCT044 BKN055 12 12 100% 76 0.0
06 18:15 N 7 6.44 Fog/Mist SCT031 BKN039 BKN060 12 12 100% 76.05 0.0
06 17:55 NW 9 9.66 Fog/Mist FEW019 BKN025 OVC038 12 12 100% 76.1 0.0
06 17:35 N 9 4.83 Fog/Mist SCT024 BKN029 BKN035 13 13 100% 76.05 0.0
06 17:15 N 6 14.48 Mostly Cloudy BKN034 13 13 100% 76.05 0.0
06 16:55 Vrbl 7 11.27 Mostly Cloudy BKN034 14 12 88% 76.02 0.0
06 16:35 NW 9 16.09 Overcast OVC032 14 11 82% 76.05 0.0
06 16:15 Vrbl 11 16.09 Overcast OVC030 15 11 77% 75.97 0.0
06 15:55 N 13 16.09 Overcast OVC029 14 11 82% 75.95 0.0
06 15:35 NW 17 16.09 Overcast OVC028 15 11 77% 76.05 0.0
06 15:15 N 7 G 22 16.09 Overcast OVC028 15 11 77% 76.02 0.0
06 14:55 N 13 16.09 Overcast OVC026 15 11 77% 76 0.0
06 14:35 Vrbl 6 16.09 Overcast OVC025 15 11 77% 75.97 0.0
06 14:15 N 13 16.09 Overcast OVC025 16 11 72% 76 0.0
06 13:55 N 7 16.09 Overcast OVC025 15 10 72% 76.05 0.0 0.05
06 13:35 Calm 0.00 Overcast OVC023 14 12 88% 76.05 0.0
06 13:15 W 9 16.09 Overcast FEW016 OVC024 15 12 82% 76.05 0.0
06 12:55 N 6 16.09 Overcast FEW014 OVC024 14 12 88% 76 0.0
06 12:35 N 9 16.09 Overcast FEW010 FEW014 OVC023 13 12 94% 76 0.0
06 12:15 N 11 16.09 Overcast SCT009 SCT013 OVC022 12 12 100% 75.97 0.0
06 11:55 N 9 16.09 Overcast BKN007 BKN012 OVC022 12 11 94% 76.02 0.0
06 11:35 Vrbl 7 16.09 Overcast BKN007 OVC013 11 11 100% 76.02 0.0
06 11:15 N 9 16.09 Overcast BKN007 OVC012 11 11 100% 76.05 0.0
06 10:55 N 11 16.09 Overcast OVC006 11 11 100% 76.05 0.0
06 10:35 N 7 16.09 Overcast OVC006 11 11 100% 76.02 0.0
06 10:15 Vrbl 6 16.09 Overcast OVC006 11 11 100% 76 0.0
06 09:55 N 13 G 24 9.66 Fog/Mist OVC006 11 11 100% 75.97 0.0
06 09:35 N 17 11.27 Overcast BKN006 OVC009 11 11 100% 75.95 0.0
06 09:15 N 19 4.83 Fog/Mist BKN007 OVC010 11 11 100% 75.92 0.0
06 08:55 N 17 G 28 3.22 Fog/Mist OVC007 11 10 94% 75.9 0.0
06 08:35 N 15 14.48 Overcast OVC006 11 11 100% 75.87 0.0
06 08:15 N 13 16.09 Overcast OVC006 11 11 100% 75.87 0.0
06 07:55 N 9 16.09 Overcast OVC006 10 10 100% 9 75.9 0.0
06 07:35 N 13 16.09 Overcast BKN007 BKN011 OVC028 10 10 100% 8 75.87 0.0
06 07:15 N 11 16.09 Overcast SCT007 BKN011 OVC028 11 10 94% 75.87 0.0
06 06:55 N 11 12.87 Overcast BKN006 BKN011 OVC028 10 10 100% 9 75.84 0.0
06 06:35 N 13 4.83 Fog/Mist BKN006 BKN011 OVC026 11 10 94% 75.82 0.0
06 06:15 N 15 G 24 3.22 Fog/Mist OVC006 11 11 100% 75.77 0.0
06 05:55 N 11 G 20 16.09 Overcast OVC007 11 11 100% 75.77 0.0
06 05:35 N 7 16.09 Overcast OVC007 11 11 100% 75.74 0.0
06 05:15 N 6 16.09 Overcast OVC007 11 11 100% 75.72 0.0
06 04:55 Calm 16.09 Overcast OVC006 11 11 100% 75.69 0.0
06 04:35 N 9 16.09 Overcast BKN006 OVC009 11 11 100% 75.69 0.0
06 04:15 N 9 14.48 Overcast BKN008 BKN012 OVC027 11 11 100% 75.72 0.0
06 03:55 N 13 16.09 Overcast FEW006 BKN010 OVC027 11 11 100% 75.69 0.0
06 03:35 NW 20 4.83 Fog/Mist OVC006 11 11 100% 75.77 0.0
06 03:15 NW 13 14.48 Overcast OVC006 12 11 94% 75.64 0.0
06 02:55 N 13 G 22 14.48 Overcast BKN004 OVC011 12 12 100% 75.59 0.0
06 02:35 N 17 14.48 Overcast BKN005 OVC010 13 13 100% 75.59 0.0
06 02:15 N 19 G 30 16.09 Overcast OVC004 14 14 100% 75.51 0.0
06 01:55 NW 17 9.66 Fog/Mist BKN006 BKN027 OVC032 18 18 100% 75.51 0.0
06 01:35 NW 11 G 20 3.22 Fog/Mist FEW003 SCT010 OVC031 18 18 100% 75.49 0.0
06 01:15 Vrbl 9 G 26 2.01 Fog/Mist SCT006 BKN018 OVC029 18 18 100% 75.49 0.0
06 00:55 SW 20 G 30 6.44 Fog/Mist BKN033 BKN042 OVC055 19 19 100% 75.44 0.0
06 00:35 S 26 G 44 12.87 Overcast SCT037 BKN046 OVC060 20 17 83% 75.46 0.0
06 00:15 S 19 G 31 16.09 Overcast BKN039 BKN048 OVC060 20 17 83% 75.46 0.0
05 23:55 S 22 16.09 Overcast SCT040 BKN050 OVC060 20 17 83% 75.49 0.0
05 23:35 S 17 G 37 16.09 Mostly Cloudy FEW039 SCT047 BKN055 19 17 88% 75.49 0.0
05 23:15 S 20 16.09 Overcast SCT038 BKN049 OVC075 19 17 88% 75.49 0.0
05 22:55 S 17 G 30 16.09 Overcast BKN039 BKN048 OVC055 18 17 94% 75.51 0.0
05 22:35 S 17 G 30 16.09 Overcast BKN039 BKN045 OVC055 18 18 100% 75.51 0.0
05 22:15 S 15 16.09 Overcast FEW010 OVC037 18 18 100% 75.54 0.0
05 21:55 S 15 16.09 Overcast OVC035 18 18 100% 75.54 0.0
05 21:35 S 11 16.09 Overcast OVC035 17 17 100% 75.51 0.0
05 21:15 S 9 16.09 Overcast OVC033 16 16 100% 75.54 0.0
05 20:55 S 7 16.09 Overcast OVC035 16 16 100% 75.54 0.0
05 20:35 Calm 12.87 Overcast OVC036 16 16 100% 75.54 0.0
Date Time (cdt) Wind (kph) Vis. (km) Weather Sky Cond. Air Dwpt Max. Min. Relative Humidity Wind Chill (°C) Heat Index (°C) altimeter (cm) sea level (mb) 1 hr 3 hr 6 hr
6 hour
Temperature (ºC) Pressure Precipitation (cm)